{"data":{"norad_id":62320,"intl_designator":"2024-239V","name":"STARLINK-32481","alt_names":[],"object_type":"PAYLOAD","status":"ACTIVE","operator":null,"country":"US","launch_date":"2024-12-13","launch_site_code":"AFWTR","launch_vehicle":null,"mission":null,"orbit_class":"UNKNOWN","rcs_meters":null,"size_class":null,"mass_kg":null,"dimensions":null,"purposes":["comms"],"wikipedia_slug":null,"has_3d_model":false,"image_url":null,"decayed_at":null,"tle_current":{"epoch":"2026-09-21T13:07:58.365984Z","epoch_age_seconds":86516,"freshness":"FRESH","line1":"1 62320U 24239V   26264.54720331  .00021246  00000+0  63817-3 0  9990","line2":"2 62320  53.1594 350.4753 0000822  91.8199 268.2897 15.34399454 99566","mean_motion":15.34399454,"eccentricity":8.22e-5,"inclination_deg":53.1594,"raan_deg":350.4753,"arg_perigee_deg":91.8199,"mean_anomaly_deg":268.2897,"bstar":0.00063817,"rev_number":9956,"period_min":93.847791476078,"perigee_km":462.14254583351,"apogee_km":463.26718023579,"semimajor_km":6840.8418630347,"source":"CELESTRAK","updated_at":"2026-09-22T09:00:49.574670Z"}}}